Retour au catalogue

STARLINK-31989

ActifCommunicationsVLEO
NORAD 59959·PAYLOAD·🇺🇸 United States

Lancé Jun 5, 2024 depuis Cape Canaveral Space Force Station

Loading…

Prochains Passages (prochaines 24 heures)

TLE

FraisSource: CelesTrak SupGP

Époque: Sep 15, 2026, 02:17 UTC

1 59959C 24107Q   26258.09562500 -.00012573  00000+0 -37140-3 0  2586
2 59959  53.1579 262.7075 0001336  88.9693  84.4068 15.34403746    12

Suivez STARLINK-31989 en temps réel avec AllMySat

Download on the App Store